Flag for Canada Weather past 2 weeks in Pictou County, Nova Scotia, Canada

Now
60 °F

Cool.


Feels Like: 60 °F
Forecast: 58 / 74 °F
Wind: 7 mph from Northeast

Location: Caribou Point

Current Time: Jul 6, 2015 at 10:00:11 PM

Latest Report: Jul 6, 2015 at 9:00 PM


Visibility: N/A

Pressure: 30.14 "Hg

Humidity: 89%

Dew point: 57 °F

Location of Pictou CountyLocation

Historic Weather in Pictou County — Graph

°F

Pictou County temperature yesterday

Maximum temperature yesterday: 67 °F (at 3:00 PM)
Minimum temperature yesterday: 60 °F (at 9:00 AM)
Average temperature yesterday: 62 °F

Past Weeks' High & Low Weather Summary

 TemperatureHumidityPressure
High80 °F (Jul 2, 5:00 PM)100% (Jun 22, 2:00 AM)30.20 "Hg (Jun 22, 2:00 AM)
Low47 °F (Jun 27, 5:00 AM)44% (Jul 3, 8:00 PM)29.59 "Hg (Jun 22, 8:00 AM)
Average60 °F80%29.91 "Hg
* Reported Jun 21 9:00 PM — Jul 6 9:00 PM, Pictou County, Weather by CustomWeather, © 2015

Note: Actual official high and low records may vary slightly from our data, if they occured in-between our weather recording intervals... More about our weather records

Advertising

Pictou County weather history for previous 24 hours

 ConditionsComfort  
Time TempWeatherWind HumidityBarometerVisibility
9:00 PM
Mon, Jul 6
60 °FCool.7 mph89%30.14 "HgN/A
8:00 PM64 °FMild.10 mph84%30.13 "HgN/A
7:00 PM66 °FMild.13 mph78%30.11 "HgN/A
6:00 PM67 °FMild.12 mph76%30.11 "HgN/A
5:00 PM68 °FMild.15 mph66%30.11 "HgN/A
4:00 PM68 °FMild.14 mph73%30.11 "HgN/A
3:00 PM67 °FMild.14 mph76%30.11 "HgN/A
2:00 PM66 °FMild.16 mph79%30.13 "HgN/A
1:00 PM66 °FMild.14 mph79%30.12 "HgN/A
12:00 PM65 °FMild.10 mph82%30.12 "HgN/A
11:00 AM64 °FMild.9 mph85%30.11 "HgN/A
10:00 AM62 °FMild.10 mph85%30.11 "HgN/A
9:00 AM62 °FCool.10 mph88%30.10 "HgN/A
8:00 AM61 °FCool.10 mph86%30.09 "HgN/A
7:00 AM60 °FCool.12 mph93%30.07 "HgN/A
6:00 AM59 °FCool.9 mph95%30.05 "HgN/A
5:00 AM60 °FCool.13 mph95%30.02 "HgN/A
4:00 AM60 °FCool.12 mph94%30.01 "HgN/A
3:00 AM62 °FCool.13 mph90%30.00 "HgN/A
2:00 AM62 °FCool.7 mph89%29.99 "HgN/A
12:00 AM62 °FCool.9 mph85%29.99 "HgN/A
Weather by CustomWeather, © 2015

See weather overviewHow to use our weather pages